Hourly Weather Roundup
Issued by NWS Central Illinois

Home | Current Version | Previous Version | Text Only | Print | Product List | Glossary On
Versions: 1 2 3 4 5 6 7 8 9 10 11 12 13 14 15 16 17 18 19 20 21 22 23 24 25 26 27 28 29 30 31 32 33 34 35 36 37 38 39 40 41 42 43 44 45 46 47 48 49 50
000
NZUS43 KILX 251610
HWRILX

AREA WEATHER ROUNDUP
NATIONAL WEATHER SERVICE, LINCOLN IL
1100 AM CDT THU AUG 25 2016


CITY           SKY/WX    TMP DP  RH WIND       PRES   REMARKS
BLOOMINGTON    PTSUNNY   76  71  85 SW13      30.10R
CHAMPAIGN      SUNNY     80  69  69 SW8       30.08S HX  83
DANVILLE       SUNNY     81  72  73 W10       30.05R HX  85
DECATUR        SUNNY     82  69  64 W9        30.09R HX  85
EFFINGHAM      PTSUNNY   85  73  68 SW6       30.10R HX  92
FLORA          SUNNY     87  77  73 S8        30.09R HX  98
GALESBURG      CLOUDY    75  69  80 CALM      30.09R
JACKSONVILLE   CLOUDY    79  71  76 W7        30.09R HX  82
LACON          MOSUNNY   76  70  79 S3        30.05S
LAWRENCEVILLE  SUNNY     87  76  69 SW9       30.08S HX  97
LITCHFIELD     SUNNY     85  69  57 CALM      30.10R HX  89
$$


CITY           SKY/WX    TMP DP  RH WIND       PRES   REMARKS
LINCOLN        CLOUDY    79  72  79 CALM      30.08R HX  82
MACOMB         CLOUDY    74  70  86 W3        30.11R
MATTOON        SUNNY     82  67  60 W7        30.08R HX  84
MT CARMEL AP   SUNNY     86  76  71 SW7       30.09R HX  95
OLNEY-NOBLE AP SUNNY     86  77  74 S6        30.09R HX  97
PARIS          SUNNY     84  72  66 W3        30.08S HX  89
PEORIA         CLOUDY    77  73  87 NW3       30.07R
PONTIAC        CLOUDY    77  74  90 W7        30.07R
RANTOUL        CLOUDY    79  73  81 W10       30.08R HX  82
ROBINSON       SUNNY     84  77  79 SW5       30.09S HX  94
SPRINGFIELD    PTSUNNY   81  71  71 W5        30.09R HX  85
TAYLORVILLE    CLOUDY    81  71  70 W5        30.09R HX  85
$$

...REGIONAL REPORTS...


CITY           SKY/WX    TMP DP  RH WIND       PRES   REMARKS
CHICAGO O`HARE CLOUDY    75  69  81 N7        30.02R
KANKAKEE       CLOUDY    76  71  83 W10       30.06R
MOLINE         CLOUDY    77  64  64 VRB5      30.07R
MOUNT STERLING CLOUDY    75  70  85 CALM      30.09R
MOUNT VERNON   SUNNY     86  73  66 S12       30.10S HX  93
PITTSFIELD     CLOUDY    79  71  77 W9        30.11R HX  81
QUINCY         CLOUDY    75  72  90 SW7       30.10R
ROCKFORD       PTSUNNY   76  64  66 W3        30.06R
$$


CITY           SKY/WX    TMP DP  RH WIND       PRES   REMARKS
BURLINGTON     CLOUDY    76  69  79 E5        30.09R
CEDAR RAPIDS   PTSUNNY   75  62  64 N5        30.09R
DES MOINES     LGT RAIN  70  63  78 NW7       30.12R
KIRKSVILLE     LGT RAIN  73  71  93 NW6       30.11R
OTTUMWA        CLOUDY    71  62  73 NE5       30.12R
ST LOUIS       MOSUNNY   89  72  56 W8        30.09R HX  96
$$


CITY           SKY/WX    TMP DP  RH WIND       PRES   REMARKS
TERRE HAUTE    SUNNY     86  71  60 SW8       30.07S HX  91
EVANSVILLE     SUNNY     87  75  67 S8        30.10S HX  96
INDIANAPOLIS   MOSUNNY   86  74  67 SW13      30.07R HX  94
LAFAYETTE      MOSUNNY   80  70  71 W9        30.05R HX  83
MADISON        PTSUNNY   76  61  59 NW6       30.05R
MILWAUKEE      MOSUNNY   78  61  55 NW7       30.02R HX  80
$$






USA.gov is the U.S. government's official web portal to all federal, state and local government web resources and services.